9Z4CT-3 Weather Reports


time (UTC)temp
C
wind
direction
speed
KPH
gust
KPH
rain 1hr
cm
rain 24hr
cm
rain mn
cm
humidity
%
barometer
mb
20260507195331 32 136 3.2 12.9 0.00 0.00 0.00 61 1011.4
20260507194314 32 128 3.2 9.7 0.00 0.00 0.00 59 1011.5
20260507193317 33 159 3.2 14.5 0.00 0.00 0.00 58 1011.5
20260507192339 33 106 1.6 17.7 0.00 0.00 0.00 58 1011.6
20260507191401 33 135 1.6 8.0 0.00 0.00 0.00 58 1011.6
20260507190336 33 155 3.2 12.9 0.00 0.00 0.00 59 1011.6
20260507185315 33 134 3.2 11.3 0.00 0.00 0.00 58 1011.8
20260507184317 33 134 3.2 11.3 0.00 0.00 0.00 59 1012.0
20260507183319 33 130 3.2 12.9 0.00 0.00 0.00 60 1012.0
20260507182343 33 150 3.2 12.9 0.00 0.00 0.00 61 1012.1
20260507181323 33 184 1.6 6.4 0.00 0.00 0.00 59 1012.2
20260507180324 33 207 1.6 14.5 0.00 0.00 0.00 59 1012.2
20260507175320 33 158 3.2 14.5 0.00 0.00 0.00 58 1012.4
20260507174320 33 135 6.4 14.5 0.00 0.00 0.00 59 1012.5
20260507173343 33 196 3.2 11.3 0.00 0.00 0.00 59 1012.7
20260507172322 33 139 3.2 11.3 0.00 0.00 0.00 60 1012.9
20260507171326 33 106 6.4 16.1 0.00 0.00 0.00 60 1013.1
20260507170329 33 91 0.0 17.7 0.00 0.00 0.00 59 1013.2
20260507165327 33 54 4.8 16.1 0.00 0.00 0.00 59 1013.5
20260507164329 33 123 1.6 29.0 0.00 0.00 0.00 60 1013.5
20260507163326 33 154 4.8 12.9 0.00 0.00 0.00 59 1013.8
20260507162329 33 47 3.2 12.9 0.00 0.00 0.00 59 1013.8
20260507161353 33 121 6.4 16.1 0.00 0.00 0.00 60 1013.9
20260507160315 33 81 6.4 16.1 0.00 0.00 0.00 61 1014.0
20260507155330 32 110 4.8 11.3 0.00 0.00 0.00 62 1014.1
20260507154330 32 104 3.2 8.0 0.00 0.00 0.00 62 1014.3
20260507153312 32 184 3.2 17.7 0.00 0.00 0.00 62 1014.3
20260507152312 32 163 4.8 16.1 0.00 0.00 0.00 63 1014.4
20260507151314 31 126 1.6 16.1 0.00 0.00 0.00 65 1014.4
20260507150315 31 192 4.8 14.5 0.00 0.00 0.00 66 1014.5
20260507145330 31 164 1.6 17.7 0.00 0.00 0.00 67 1014.6
20260507144313 31 117 4.8 16.1 0.00 0.00 0.00 66 1014.7
20260507143316 31 144 1.6 4.8 0.00 0.00 0.00 67 1014.8
20260507142321 31 141 0.0 11.3 0.00 0.00 0.00 68 1014.8
20260507141322 30 185 1.6 11.3 0.00 0.00 0.00 69 1014.9
20260507140323 30 139 1.6 11.3 0.00 0.00 0.00 70 1015.0
20260507135344 30 105 3.2 14.5 0.00 0.00 0.00 70 1015.0
20260507134322 30 136 6.4 19.3 0.00 0.00 0.00 70 1015.0
20260507133344 30 108 4.8 16.1 0.00 0.00 0.00 72 1015.0
20260507132325 29 42 3.2 12.9 0.00 0.00 0.00 73 1015.1
20260507131327 29 126 6.4 14.5 0.00 0.00 0.00 74 1015.2
20260507130329 28 92 6.4 12.9 0.00 0.00 0.00 76 1015.0
20260507125329 28 112 3.2 17.7 0.00 0.00 0.00 78 1015.0
20260507124327 28 104 6.4 16.1 0.00 0.00 0.00 81 1015.0
20260507123330 27 110 3.2 16.1 0.00 0.00 0.00 83 1015.0
20260507122313 27 126 4.8 17.7 0.00 0.00 0.00 85 1015.0
20260507121315 27 51 3.2 19.3 0.00 0.00 0.00 87 1014.9
20260507120315 26 125 4.8 14.5 0.00 0.00 0.00 88 1014.9
20260507115334 26 150 3.2 14.5 0.00 0.00 0.00 89 1014.8
20260507114316 26 87 4.8 12.9 0.00 0.00 0.00 89 1014.8
20260507113320 25 117 1.6 8.0 0.00 0.00 0.00 90 1014.8
20260507112322 25 125 1.6 4.8 0.00 0.00 0.00 90 1014.8
20260507111322 24 126 0.0 3.2 0.00 0.00 0.00 90 1014.7
20260507110320 24 126 1.6 6.4 0.00 0.00 0.00 90 1014.6
20260507105318 23 102 3.2 4.8 0.00 0.00 0.00 90 1014.5
20260507104319 23 72 0.0 1.6 0.00 0.00 0.00 90 1014.6
20260507103321 23 72 0.0 1.6 0.00 0.00 0.00 89 1014.5
20260507102322 23 72 0.0 0.0 0.00 0.00 0.00 89 1014.6
20260507101343 23 72 0.0 0.0 0.00 0.00 0.00 89 1014.6
20260507100327 23 73 0.0 0.0 0.00 0.00 0.00 89 1014.5
20260507095343 23 73 0.0 0.0 0.00 0.00 0.00 89 1014.5
20260507094328 23 73 0.0 0.0 0.00 0.00 0.00 89 1014.4
20260507093316 23 73 0.0 0.0 0.00 0.00 0.00 89 1014.4
20260507092334 23 73 0.0 0.0 0.00 0.00 0.00 89 1014.4
20260507091316 23 73 0.0 0.0 0.00 0.00 0.00 89 1014.3
20260507090321 23 73 0.0 0.0 0.00 0.00 0.00 89 1014.1
20260507085335 23 73 0.0 0.0 0.00 0.00 0.00 89 1014.1
20260507084316 23 73 0.0 0.0 0.00 0.00 0.00 89 1014.1
20260507083338 23 73 0.0 0.0 0.00 0.00 0.00 89 1014.0
20260507082321 23 73 0.0 0.0 0.00 0.00 0.00 89 1014.1
20260507081345 23 73 0.0 0.0 0.00 0.00 0.00 89 1014.0
20260507080330 23 73 0.0 0.0 0.00 0.00 0.00 89 1014.0
20260507075326 23 73 0.0 0.0 0.00 0.00 0.00 89 1013.9
20260507074325 23 73 0.0 0.0 0.00 0.00 0.00 88 1013.8
20260507073325 23 73 0.0 0.0 0.00 0.00 0.00 88 1013.8
20260507072329 23 73 0.0 0.0 0.00 0.00 0.00 88 1013.9
20260507071333 23 73 0.0 0.0 0.00 0.20 0.00 88 1013.9
20260507070316 23 73 0.0 0.0 0.00 0.20 0.00 88 1013.9
20260507065315 23 73 0.0 0.0 0.00 0.20 0.00 88 1013.9
20260507064315 23 73 0.0 0.0 0.00 0.20 0.00 88 1014.0
20260507063319 23 73 0.0 0.0 0.00 0.20 0.00 88 1014.1
20260507062321 23 73 0.0 0.0 0.00 0.20 0.00 88 1014.1
20260507061347 23 73 0.0 1.6 0.00 0.20 0.00 88 1014.1
20260507060348 23 73 0.0 1.6 0.00 0.20 0.00 88 1014.1
20260507055326 23 71 0.0 1.6 0.00 0.20 0.00 87 1014.2
20260507054320 23 71 0.0 0.0 0.00 0.20 0.00 87 1014.3
20260507053340 23 71 0.0 4.8 0.00 0.20 0.00 87 1014.4
20260507052344 23 71 0.0 4.8 0.00 0.20 0.00 87 1014.5
20260507051323 23 78 0.0 0.0 0.00 0.20 0.00 87 1014.7
20260507050327 23 78 0.0 0.0 0.00 0.20 0.00 87 1014.8
20260507045326 23 78 0.0 0.0 0.00 0.20 0.00 87 1014.8
20260507044352 23 78 0.0 1.6 0.00 0.20 0.00 87 1014.9
20260507043315 23 78 0.0 1.6 0.00 0.20 0.00 87 1015.1
20260507042336 24 78 0.0 1.6 0.00 0.20 0.00 87 1015.3
20260507041316 24 78 0.0 3.2 0.00 0.20 0.05 87 1015.4
20260507040320 24 78 0.0 3.2 0.00 0.20 0.05 87 1015.3
20260507035342 24 71 0.0 3.2 0.00 0.20 0.05 87 1015.4
20260507034322 24 71 1.6 3.2 0.00 0.20 0.05 86 1015.5
20260507033317 24 70 1.6 3.2 0.00 0.20 0.05 86 1015.6
20260507032339 24 69 0.0 0.0 0.00 0.20 0.05 86 1015.7
20260507031317 24 69 0.0 0.0 0.00 0.20 0.05 86 1015.7
20260507030334 24 69 0.0 0.0 0.00 0.20 0.05 86 1015.7
20260507025352 24 69 0.0 0.0 0.00 0.20 0.05 85 1015.7
20260507024352 25 69 0.0 0.0 0.00 0.20 0.05 85 1015.6
20260507023332 25 69 0.0 0.0 0.00 0.20 0.05 85 1015.7
20260507022313 25 69 0.0 1.6 0.00 0.20 0.05 85 1015.6
20260507021314 25 69 0.0 3.2 0.00 0.20 0.05 85 1015.7
20260507020318 25 69 0.0 3.2 0.00 0.20 0.05 85 1015.8
20260507015335 25 69 3.2 6.4 0.00 0.20 0.05 84 1015.8
20260507014315 25 106 0.0 0.0 0.00 0.20 0.05 84 1015.8
20260507013319 25 106 0.0 4.8 0.00 0.20 0.05 84 1015.7
20260507012319 25 105 1.6 6.4 0.00 0.20 0.05 84 1015.6
20260507011340 25 106 1.6 4.8 0.00 0.20 0.05 83 1015.5
20260507010333 25 116 1.6 4.8 0.00 0.20 0.05 83 1015.4
20260507005359 25 117 1.6 4.8 0.00 0.20 0.05 83 1015.2
20260507004313 25 121 1.6 6.4 0.00 0.20 0.05 83 1015.2
20260507003327 25 109 0.0 4.8 0.00 0.20 0.05 82 1014.9
20260507002326 26 100 1.6 4.8 0.00 0.20 0.05 82 1014.9
20260507001330 26 100 3.2 9.7 0.00 0.20 0.05 82 1014.8
20260507000350 26 109 1.6 6.4 0.00 0.20 0.05 81 1014.8
20260506235327 26 127 1.6 6.4 0.00 0.20 0.05 81 1014.7
20260506234328 26 128 1.6 4.8 0.00 0.20 0.05 80 1014.6
20260506233330 26 127 3.2 6.4 0.00 0.20 0.05 80 1014.5
20260506232330 26 113 3.2 4.8 0.00 0.20 0.05 79 1014.3
20260506231329 26 110 1.6 4.8 0.00 0.20 0.05 79 1014.2
20260506230330 27 121 1.6 4.8 0.00 0.20 0.05 78 1014.2
20260506225328 27 138 1.6 3.2 0.00 0.20 0.05 77 1014.2
20260506224326 27 138 1.6 4.8 0.00 0.20 0.05 76 1014.1
20260506223325 27 134 1.6 4.8 0.00 0.20 0.05 75 1014.1
20260506222328 28 127 0.0 4.8 0.00 0.20 0.05 74 1014.0
20260506221330 28 101 1.6 8.0 0.00 0.20 0.05 73 1014.0
20260506220328 28 132 0.0 4.8 0.00 0.20 0.05 72 1013.9
20260506215348 28 127 1.6 11.3 0.00 0.20 0.05 71 1013.8
20260506214351 29 114 1.6 11.3 0.00 0.20 0.05 70 1013.7
20260506213312 29 99 1.6 11.3 0.00 0.20 0.05 68 1013.7
20260506212332 30 82 1.6 16.1 0.00 0.20 0.05 67 1013.5
20260506211314 30 123 4.8 14.5 0.00 0.20 0.05 66 1013.4
20260506210315 30 178 1.6 12.9 0.00 0.20 0.05 64 1013.3
20260506205316 31 117 4.8 14.5 0.00 0.20 0.05 64 1013.2
20260506204336 31 135 3.2 17.7 0.00 0.20 0.05 64 1013.1
20260506203344 31 122 4.8 16.1 0.00 0.20 0.05 62 1013.2
20260506202325 32 127 3.2 16.1 0.00 0.20 0.05 62 1013.1
20260506201326 32 197 3.2 16.1 0.00 0.20 0.05 60 1013.1
20260506200322 32 178 4.8 11.3 0.00 0.20 0.05 61 1012.9